Location: Berlijn
(52.5200°N, 13.4050°E)
Time: 17:43:20
(UTC+02:00)

Envisat - Pass Details

Date: 24 September 2021
Orbit: 764 x 766 km, 98.2° (Epoch: 18 October)

Event Time Altitude Azimuth Distance (km) Brightness Sun altitude
Rises 04:52:52 0° 27° (NNE) 3,245 7.1 -18.9°
Reaches altitude 10° 04:56:14 10° 51° (NE) 2,312 6.6 -18.5°
Maximum altitude 04:59:07 15° 85° (E) 1,976 6.1 -18.1°
Drops below altitude 10° 05:02:00 10° 120° (ESE) 2,301 6.0 -17.7°
Sets 05:05:19 0° 144° (SE) 3,221 6.4 -17.2°
